Weather Service Report


004 
ASUS44 KLZK 220105
RWRLZK

WEATHER ROUNDUP FOR ARKANSAS
NATIONAL WEATHER SERVICE LITTLE ROCK AR
700 PM CST TUE FEB 21 2017

NOTE: "FAIR" INDICATES FEW OR NO CLOUDS BELOW 12,000 FEET WITH NO
SIGNIFICANT WEATHER AND/OR OBSTRUCTIONS TO VISIBILITY.

ARZ001-003-010-029-220200-
NORTHWEST ARKANSAS
  
CITY           SKY/WX    TMP DP  RH WIND       PRES   REMARKS
FAYETTEVILLE   CLOUDY    61  56  83 E3        29.92R                  
FORT SMITH     CLOUDY    64  55  72 E5        29.89R                  
HARRISON       CLOUDY    57  56  96 NE6       29.91S                  
BENTONVILLE    CLOUDY    64  54  68 E6        29.93R                  
ROGERS         CLOUDY    62  55  77 NE8       29.93R                  
SILOAM SPGS    CLOUDY    64  52  63 NE3       29.91R                  
HIGHFILL       CLOUDY    64  54  69 NE6       29.91                   
SPRINGDALE     CLOUDY    63  55  77 NE5       29.94R                  
$$

ARZ004-005-016-220200-
NORTH CENTRAL ARKANSAS
  
CITY           SKY/WX    TMP DP  RH WIND       PRES   REMARKS
BATESVILLE     CLOUDY    59  55  88 N5        29.90R                  
FLIPPIN        CLOUDY    57  54  88 CALM      29.89R                  
MTN HOME       MOCLDY    57  56  96 CALM      29.90R                  
$$

ARZ040-041-220200-
WEST CENTRAL ARKANSAS
  
CITY           SKY/WX    TMP DP  RH WIND       PRES   REMARKS
MENA           CLOUDY    63  61  94 CALM      29.90S                  
MOUNT IDA      CLOUDY    59  58  96 VRB3      29.86R FOG              
$$

ARZ009-017-025-026-028-220200-
NORTHEAST ARKANSAS
  
CITY           SKY/WX    TMP DP  RH WIND       PRES   REMARKS
CORNING        CLOUDY    61  61 100 E10       29.89F                  
JONESBORO      CLOUDY    62  59  90 NE7       29.88R                  
NEWPORT        CLOUDY    60  59  96 N6        29.89R                  
WALNUT RIDGE   CLOUDY    61  57  88 NE3       29.88S                  
BLYTHEVILLE    CLOUDY    61  59  93 E9        29.89S                  
$$

ARZ022-023-033-042-044-220200-
CENTRAL ARKANSAS
  
CITY           SKY/WX    TMP DP  RH WIND       PRES   REMARKS
LITTLE ROCK    LGT RAIN  59  59 100 N7        29.86R                  
N LITTLE ROCK    N/A     58  57  96 N5        29.87R                  
JACKSONVILLE   DRIZZLE   61  61 100 CALM      29.86S                  
SEARCY         CLOUDY    60  60 100 N6        29.89R                  
HOT SPRINGS    CLOUDY    60  59  96 VRB5      29.86S                  
RUSSELLVILLE   CLOUDY    59  58  96 N3        29.87S                  
CLINTON        CLOUDY    59  57  94 CALM      29.88F FOG              
$$

ARZ036-220200-
EAST ARKANSAS
  
CITY           SKY/WX    TMP DP  RH WIND       PRES   REMARKS
WEST MEMPHIS   CLOUDY    62  60  93 SE5       29.87R                  
$$

ARZ050-053-066-070-073-220200-
SOUTHWEST ARKANSAS
  
CITY           SKY/WX    TMP DP  RH WIND       PRES   REMARKS
ARKADELPHIA    CLOUDY    60  59  96 N5        29.86S                  
CAMDEN         LGT RAIN  59  57  94 CALM      29.86S                  
EL DORADO      CLOUDY    60  59  96 W3        29.86S                  
DE QUEEN       CLOUDY    64  56  75 CALM      29.87R                  
$$

ARZ056-057-069-220200-
SOUTHEAST ARKANSAS
  
CITY           SKY/WX    TMP DP  RH WIND       PRES   REMARKS
PINE BLUFF     MOCLDY    59  58  96 SW3       29.85R                  
STUTTGART      CLEAR     61  52  72 SE3       29.87R                  
MONTICELLO     CLOUDY    60  57  89 W3        29.86S                  

$$


  

Return to Home page


Western Regional Climate Center, wrcc@dri.edu